Tracking 21992 objects as of 28-Nov-2020
HD Live streaming from Space Station
objects crossing your sky now

AUREOLE 1

Track AUREOLE 1 now!
10-day predictions
AUREOLE 1 is classified as:


NORAD ID: 5729
Int'l Code: 1971-119A
Perigee: 392.7 km
Apogee: 1,572.5 km
Inclination: 74.0 °
Period: 104.6 minutes
Semi major axis: 7353 km
RCS: 2.1591 m2 (large)
Launch date: December 27, 1971
Source: France (FR)
Launch site: PLESETSK MISSILE AND SPACE COMPLEX (PKMTR)
aabbcc
Your satellite tracking list
Your tracking list is empty




NASA's NSSDC Master Catalog

Two Line Element Set (TLE):
1  5729U 71119A   20333.56581323 +.00001344 +00000-0 +10540-3 0  9991
2  5729 073.9570 329.5263 0802146 229.5621 123.2857 13.76739850360987
Source of the keplerian elements: AFSPC